Location: Hermaringen
(48.5952°N, 10.2585°E)
Time: 18:35:05
(UTC+00:00)

Injun/Solrad 3 - Pass Details

Date: 21 February 2026
Orbit: 872 x 984 km, 66.8° (Epoch: 6 March)

Event Time Altitude Azimuth Distance (km) Brightness Sun altitude
Rises 18:48:13 0° 322° (NW) 3,576 11.6 -20.2°
Reaches altitude 10° 18:50:46 10° 319° (NW) 2,647 10.9 -20.6°
Maximum altitude 18:56:47 57° 242° (WSW) 1,114 8.5 -21.6°
Enters shadow 19:02:52 10° 166° (SSE) 2,679 10.1 -22.6°
